Weather History for Truckee-Tahoe, CA

Change the Weather History Date:

Sunday, December 9, 2012

  Actual Average Record
Temperature  
Mean Temperature 32 °F -  
Max Temperature 44 °F 41 °F 65 °F (1949)
Min Temperature 19 °F 15 °F -22 °F (1972)
Degree Days  
Heating Degree Days 34    
Moisture  
Dew Point 23 °F    
Average Humidity 83    
Maximum Humidity 100    
Minimum Humidity 43    
Precipitation  
Precipitation 0.00 in - - ()
Sea Level Pressure  
Sea Level Pressure 30.30 in    
Wind  
Wind Speed 1 mph (NE)    
Max Wind Speed 9 mph    
Max Gust Speed -    
Visibility 10 miles    
Events      
Averages and records for this station are not official NWS values.
T = Trace of Precipitation, MM = Missing Value Source: NWS Daily Summary

Daily Weather History Graph

Daily Weather History Graph

Search for Another Location

Airport:

Trip Planner

Search our weather history database for the weather conditions in past years. The results will help you decide how hot, cold, wet, or windy it might be!

Date:

Astronomy

Dec. 09, 2012 Rise Set
Actual Time 7:09 AM PST 4:37 PM PST
Civil Twilight 6:39 AM PST 5:07 PM PST
Nautical Twilight 6:05 AM PST 5:40 PM PST
Astronomical Twilight 5:32 AM PST 6:13 PM PST
Moon 2:48 AM PST (12/9) 1:46 PM PST (12/9)
Length of Visible Light 10h 28m
Length of Day
9h 28m
Waning Crescent, 17% of the Moon is Illuminated
Dec 9
Waning Crescent
Dec 13
New
Dec 19
First Quarter
Dec 28
Full
Jan 4
Last Quarter

Hourly Weather History & Observations

Time (PST) Temp. Windchill Dew Point Humidity Pressure Visibility Wind Dir Wind Speed Gust Speed Precip Events Conditions
12:15 AM 26.6 °F - 23.0 °F 86% 30.20 in 10.0 mi Calm Calm - N/A   Clear
12:35 AM 24.8 °F - 23.0 °F 93% 30.20 in 10.0 mi Calm Calm - N/A   Clear
12:55 AM 26.6 °F 22.6 °F 23.0 °F 86% 30.21 in 10.0 mi NNW 3.5 mph - N/A   Clear
1:15 AM 24.8 °F - 23.0 °F 93% 30.21 in 10.0 mi Calm Calm - N/A   Clear
1:35 AM 23.0 °F - 21.2 °F 93% 30.20 in 10.0 mi Calm Calm - N/A   Clear
1:55 AM 24.8 °F - 23.0 °F 93% 30.20 in 10.0 mi Calm Calm - N/A   Clear
2:15 AM 24.8 °F - 23.0 °F 93% 30.22 in 10.0 mi Calm Calm - N/A   Clear
2:35 AM 23.0 °F 17.0 °F 21.2 °F 93% 30.22 in 10.0 mi SW 4.6 mph - N/A   Clear
2:55 AM 23.0 °F - 23.0 °F 100% 30.21 in 10.0 mi Calm Calm - N/A   Clear
3:15 AM 23.0 °F 18.4 °F 21.2 °F 93% 30.22 in 10.0 mi ENE 3.5 mph - N/A   Clear
3:35 AM 23.0 °F - 23.0 °F 100% 30.23 in 10.0 mi Calm Calm - N/A   Clear
3:55 AM 24.8 °F - 23.0 °F 93% 30.23 in 10.0 mi Calm Calm - N/A   Clear
4:15 AM 23.0 °F - 21.2 °F 93% 30.23 in 10.0 mi Calm Calm - N/A   Clear
4:35 AM 24.8 °F - 23.0 °F 93% 30.24 in 10.0 mi Calm Calm - N/A   Clear
4:55 AM 23.0 °F - 21.2 °F 93% 30.25 in 10.0 mi Calm Calm - N/A   Clear
5:15 AM 23.0 °F - 21.2 °F 93% 30.25 in 10.0 mi Calm Calm - N/A   Clear
5:35 AM 23.0 °F 18.4 °F 21.2 °F 93% 30.25 in 10.0 mi SSW 3.5 mph - N/A   Clear
7:45 AM 21.2 °F - 19.4 °F 93% 30.28 in 10.0 mi Calm Calm - N/A   Scattered Clouds
7:55 AM 19.4 °F - 19.4 °F 100% 30.28 in 10.0 mi Calm Calm - N/A   Scattered Clouds
8:55 AM 26.6 °F - 24.8 °F 93% 30.31 in 10.0 mi Calm Calm - N/A   Mostly Cloudy
9:45 AM 30.2 °F - 24.8 °F 80% 30.33 in 10.0 mi Calm Calm - N/A   Scattered Clouds
10:55 AM 35.6 °F - 24.8 °F 65% 30.32 in 10.0 mi Calm Calm - N/A   Scattered Clouds
11:50 AM 39.2 °F 37.0 °F 24.8 °F 56% 30.31 in 10.0 mi North 3.5 mph - N/A   Scattered Clouds
12:45 PM 44.6 °F 39.7 °F 24.8 °F 46% 30.28 in 10.0 mi NE 9.2 mph - N/A   Clear
1:55 PM 44.6 °F 42.2 °F 23.0 °F 43% 30.27 in 10.0 mi North 4.6 mph - N/A   Scattered Clouds
2:50 PM 44.6 °F 40.7 °F 23.0 °F 43% 30.28 in 10.0 mi North 6.9 mph - N/A   Scattered Clouds
3:50 PM 39.2 °F 33.0 °F 23.0 °F 52% 30.30 in 10.0 mi North 9.2 mph - N/A   Partly Cloudy
4:50 PM 35.6 °F 31.7 °F 23.0 °F 60% 30.31 in 10.0 mi North 4.6 mph - N/A   Partly Cloudy
4:55 PM 35.6 °F 32.8 °F 23.0 °F 60% 30.31 in 10.0 mi NNE 3.5 mph - N/A   Clear
5:15 PM 32.0 °F - 23.0 °F 69% 30.32 in 10.0 mi Calm Calm - N/A   Clear
5:35 PM 32.0 °F - 23.0 °F 69% 30.33 in 10.0 mi Calm Calm - N/A   Clear
5:55 PM 32.0 °F 28.7 °F 23.0 °F 69% 30.33 in 10.0 mi South 3.5 mph - N/A   Clear
6:15 PM 28.4 °F 23.3 °F 23.0 °F 80% 30.33 in 10.0 mi SSE 4.6 mph - N/A   Clear
6:35 PM 30.2 °F - 23.0 °F 75% 30.34 in 10.0 mi Calm Calm - N/A   Clear
6:55 PM 28.4 °F 23.3 °F 23.0 °F 80% 30.35 in 10.0 mi South 4.6 mph - N/A   Clear
7:15 PM 26.6 °F - 23.0 °F 86% 30.36 in 10.0 mi Calm Calm - N/A   Clear
7:35 PM 26.6 °F - 23.0 °F 86% 30.36 in 10.0 mi Calm Calm - N/A   Clear
7:55 PM 26.6 °F 22.6 °F 23.0 °F 86% 30.37 in 10.0 mi South 3.5 mph - N/A   Clear
8:15 PM 24.8 °F - 23.0 °F 93% 30.38 in 10.0 mi Calm Calm - N/A   Clear
8:35 PM 26.6 °F 22.6 °F 23.0 °F 86% 30.38 in 10.0 mi SSE 3.5 mph - N/A   Clear
8:55 PM 24.8 °F - 21.2 °F 86% 30.37 in 10.0 mi Calm Calm - N/A   Clear
9:15 PM 26.6 °F 21.2 °F 23.0 °F 86% 30.38 in 10.0 mi North 4.6 mph - N/A   Clear
9:35 PM 26.6 °F - 23.0 °F 86% 30.39 in 10.0 mi Calm Calm - N/A   Clear
9:55 PM 24.8 °F - 23.0 °F 93% 30.39 in 10.0 mi Calm Calm - N/A   Clear
10:15 PM 24.8 °F - 23.0 °F 93% 30.38 in 10.0 mi Calm Calm - N/A   Clear
10:35 PM 24.8 °F - 21.2 °F 86% 30.38 in 10.0 mi Calm Calm - N/A   Clear
10:55 PM 23.0 °F 18.4 °F 19.4 °F 86% 30.39 in 10.0 mi South 3.5 mph - N/A   Clear
11:15 PM 23.0 °F - 21.2 °F 93% 30.39 in 10.0 mi Calm Calm - N/A   Clear
11:35 PM 24.8 °F - 23.0 °F 93% 30.39 in 10.0 mi Calm Calm - N/A   Clear
11:55 PM 24.8 °F - 23.0 °F 93% 30.39 in 10.0 mi Calm Calm - N/A   Clear